mattdh12's sites:

title views votes rating creation
?mj visits quiznos 3,021 51 (4.29)  2014-10-14
?conan news 2,233 62 (3.95)  2013-04-01
?roulette 7,831 98 (4.49)  2013-01-06
?my new text message notification sound 1,435 35 (3.77)  2012-07-22
?bob dole gets a haircut 4,154 77 (4.12)  2011-07-18
?tampa bay opening day 1,690 42 (4.29)  2011-04-12
?clock tower ringing OF THE FUTURE 3,325 38 (4.21)  2010-11-05
?record sounds: the record 1,633 34 (4.29)  2010-04-07
?winston churchill revenge part 2 - WINSTON CHU... 1,174 26 (4.35)  2009-10-24
?winston churchill revenge part 1 - WINSTON CHU... 1,650 22 (4.18)  2009-10-24
?Homeless People HATE the Super Bowl 1,282 56 (4.34)  2009-09-02
?tourney3: cone n jokes for the metal demographic 1,331 26 (4.54)  2009-07-26
?tourney3: shakespeare's forgotten last dram... 3,297 75 (4.07)  2009-07-16
?Lady Gaga - Poker Face (a Kevin Federline remix) 7,356 73 (3.96)  2009-03-22
?fight themed ytmnd for the photoshop tournament c... 1,402 44 (4.20)  2009-01-18
?(nsfw) 2008 yelling bee 3,995 170 (4.00)  2008-11-16
?mario makes a sandwich 26,854 759 (4.26)  2008-08-13
?best ytnmd ever 5,941 147 (4.49)  2008-07-14
?3:00 drinkin dat soda 1,493 45 (4.22)  2008-06-02
?(nsfw) idiot hallo"weiner" "tps&quot... 4,424 124 (3.90)  2008-05-29
?mitch hedberg "moves tha crowd" (with l... 2,114 45 (4.31)  2008-04-22
?Tiger Woods Putt To Win Arnie Palson Tourname... 5,267 61 (4.16)  2008-04-03
?"u"tube duel 2,137 99 (4.01)  2008-03-03
?work safety 5,419 217 (4.13)  2008-01-20
?shaq gives birth 10,944 335 (4.12)  2008-01-01
?guy who milks cows grabs the wrong bucket and a... 3,429 86 (4.20)  2007-12-17
?raige aganest the machines final concert [full video] ... 1,191 40 (4.13)  2007-12-09
?trebeks thanksgiving 1,356 45 (4.11)  2007-11-23
?shaq zone 34,086 980 (4.42)  2007-11-12
?Part 3: "Funny Show: The Show": Epis... 687 28 (4.21)  2007-11-05
?Part 2: "Funny Show: The Show": Epis... 683 24 (4.17)  2007-11-05
?Part 1: "Funny Show: The Show": Epis... 2,436 85 (4.21)  2007-11-05
?the patty melt song 640 21 (3.76)  2007-10-18
?Mario Gets Revenge On Neo 1,390 47 (4.06)  2007-10-15
?HOOOOOOOONK! OOOOOOOOH! 1,757 45 (4.38)  2007-10-12
?(nsfw) kramer gets the wrong script but it doesnt m... 6,173 112 (4.01)  2007-10-06
?[b](nsfw)[/b] Alternate Ending to the Hit Film "... 22,556 91 (4.15)  2007-09-21
?PART 1: BEST BEATS (i win, best cannot be BE... 618 32 (4.09)  2007-09-13
?tight 792 24 (3.83)  2007-09-08
?Sp"y": "der man" 4 IN 3-D 1,005 25 (4.28)  2007-08-25
?Your Mom ft. Dyslexia - Light My Fire [LIVE] 982 45 (3.89)  2007-08-19
?scene from ""A Jerk"" 726 29 (3.97)  2007-08-18
?doctor gets sunburned and gives sun a "taste... 3,602 156 (4.07)  2007-08-09
?bob barker as a contestant on the new price is right 6,442 80 (4.01)  2007-07-17
?captain jean luc picard plays 3D Pinball for Window... 6,090 69 (3.99)  2007-07-08
?cant brake treadmill guys stride 953 27 (3.30)  2007-07-03
?(nsfw) blank space 2,488 76 (3.99)  2007-06-29
?exciting infinite lap race 809 25 (4.04)  2007-06-12
?funky furniture 1,645 89 (3.83)  2007-06-09
?a biker jumps too far 1,283 54 (4.17)  2007-05-25
?Ending to Se7en in German (with subtitles) 1,287 33 (4.00)  2007-05-18
?carlos mencia steals from websters joke book? 3,741 36 (4.03)  2007-05-12
?a plate fight for the ages 2,578 37 (3.89)  2007-05-07
?my title was too long so i put it in the description 11,824 208 (3.88)  2007-05-06
?YTMND.dot.fce 1,124 63 (3.89)  2007-05-02
?(nsfw) jared does the 30 second version of a comm... 3,423 108 (3.97)  2007-05-01
?extreme street jumping with big daddy gramps 968 17 (3.88)  2007-04-28
?put hat on "head" 768 34 (4.15)  2007-04-11
?pizza guy performs coltrane but is blWHOAn awa... 3,722 44 (4.25)  2007-04-10
?mitch hedberg says some words but the crowd doe... 1,163 30 (3.57)  2007-04-04
?(nsfw) i get my first birdie in tiger woods 2007 and fe... 3,684 56 (4.04)  2007-04-04
?Photoshop Contest 1,802 40 (3.73)  2007-03-28
?chief (updated title, no longer says dew army in par... 915 29 (3.90)  2007-03-25
?(nsfw) customer tries to order bread but the waiter ... 2,725 37 (3.92)  2007-03-21
?We just might be trapped 874 27 (3.67)  2007-03-19
?my grandpa experiments with a snowy sandwich be... 2,966 38 (3.89)  2007-03-18
?If the Movie Speed was Realistic 1,110 37 (4.14)  2007-03-13
?Comedy General Hospital with Major Budget Cuts In... 935 31 (4.03)  2007-03-07
?Picture Time at the Library 795 35 (3.49)  2007-03-05
?I AM GOING TO SUE YOU'R CAT!!! a dra... 3,645 41 (3.39)  2007-03-04
?My Balloons and Me 1,038 39 (4.31)  2007-02-26
?Macromedia Flash Noise Tutorial 2,727 62 (3.87)  2007-02-21
?A NEW FAD SITE LOL FOR THE NEW FAD 1,122 52 (3.94)  2007-02-20
?My Favorite Kill Bill Scene 3,203 76 (4.13)  2007-02-16
?(nsfw) AAHHK 1,511 34 (4.24)  2007-02-15
?LAUGHING CLOCK NO WAY LOL NOT FAKE 1,436 39 (3.82)  2007-02-13
?Bart's Mortal Enemy 16,284 356 (3.78)  2007-02-11
?THE AXE EFFECT 803 18 (3.61)  2007-02-11
?scanimation 788 37 (4.16)  2007-02-09
?THREE MINUTE COMIXS 1,179 32 (4.06)  2007-02-07
?THE SECOND FINAL BATTLE 1,375 32 (4.09)  2007-02-06
?Popular 858 33 (4.15)  2007-02-04
?Funeral 1,731 45 (4.16)  2007-01-28
?local on the 8s? more like...local voat 5 on this ytm... 1,200 61 (3.77)  2007-01-27
?(nsfw) ATTENTION YTMND: NSFW 13,857 65 (3.92)  2007-01-21
?THE FIRST FINAL BATTLE 1,059 30 (3.93)  2007-01-21
?fresh prince of square wave 1,499 44 (3.73)  2007-01-20
?will smith says uh what woo and haha a lot 24,481 465 (4.24)  2007-01-18
?SWEET SASSY MOLASSY 1,031 36 (3.64)  2007-01-17
?three things happen: jorge plays fast money, you v... 1,454 63 (4.13)  2007-01-15
?FUNNIE BAGELS WITH ZAZAZA ADDED LOL ... 2,942 36 (3.72)  2007-01-15
?Teenage Mustard Ninja Jorge Busch and Aleksand... 1,807 84 (3.75)  2007-01-06
?The World is Flat 8,783 462 (4.33)  2007-01-03
?NEW SITCOM 1,089 25 (3.88)  2007-01-02
?PlREEEEEEEEEase. KHAN am NOOOOOOOgof... 1,071 39 (3.62)  2006-12-29
?oj simpson was GUILTY 851 22 (3.45)  2006-12-28
?these rocket balloons are perfect, what more could... 2,256 26 (4.00)  2006-12-23
?(nsfw) jon carrie atemps to billd a grand carrielition in... 4,060 135 (3.68)  2006-12-22
?some person enjoys a ytmnd of an object without a ... 1,167 40 (3.78)  2006-12-21
?test site 1,002 34 (3.94)  2006-12-20
?Trick Shot Magic 983 32 (3.47)  2006-12-17
?WHAT WAS I THINKING? 1,707 64 (4.23)  2006-11-29
?famly um uh feyoud 830 29 (4.00)  2006-11-28
?(nsfw) DANCING SUNGLASSES 1,280 36 (3.67)  2006-11-28
?SHE FORGOT MY WATCH 733 31 (3.90)  2006-11-27
?jon carrie plays grand carrielition sweeper but loses ... 1,641 81 (3.96)  2006-11-24
?Jared is Gaining Weight Again 7,684 300 (3.87)  2006-11-23
?Pancake Fiction (Part 2) 966 19 (3.68)  2006-11-22
?Pancake Fiction (Part 1) 986 18 (4.00)  2006-11-21
?i put tons of effort into this 540 23 (3.70)  2006-11-20
?Jorge busch wants to buy a grand carrielition, but v... 1,391 86 (3.47)  2006-11-19
?A Very Square YTMND 707 30 (3.27)  2006-11-18
?PS3 on ebay will retail for... 7,265 85 (3.76)  2006-11-17
?Future Crocodile-O'Brien doesn't care... 1,054 40 (3.88)  2006-11-14
?Link finds a... what the hell is that? 1,394 35 (3.63)  2006-11-14
?Conan is...A TALK SHOW HOST 1,948 54 (4.06)  2006-11-11
?the guy who plays khan gets sick so borat plays hi... 3,059 35 (3.86)  2006-11-11
?WHICH CLOCK IS REAL 11,031 300 (3.30)  2006-11-09
?MY ENTRIE #! FOR BORAT CONTEST 1,605 47 (3.68)  2006-11-08
?HUGE TRUCK CRASH 2,297 70 (4.17)  2006-11-05
?EARTHQUAKE but some fat guy is too hungry to ... 773 20 (3.65)  2006-11-03
?Dean Wave 11,819 494 (4.35)  2006-11-01
?NBA Jam Returns 3,448 87 (3.83)  2006-10-31
?COOL MUSIC VIDEO 819 23 (3.83)  2006-10-30
?test site dont vote 1,161 41 (3.80)  2006-10-29
?how to eat an air conditioner in under 62 seconds 2,290 81 (3.30)  2006-10-29
?jorge busch shoots a +5 and at the same time teach... 1,489 83 (3.94)  2006-10-27
?KHAN-KHAN DANCE 818 44 (3.11)  2006-10-24
?Skating 708 22 (3.91)  2006-10-24
?(Voated5) How to prank Jon Carrie 19,494 570 (3.75)  2006-10-22
?Jared interviews some guy 1,161 55 (3.91)  2006-10-20
?Jared is DISGUSTED by the amount of grams 2,901 136 (3.92)  2006-10-20
?What Shaq Thinks of Kobe's CD 1,584 20 (3.70)  2006-10-19
?Alligator ate my Playmobil 1,152 32 (3.75)  2006-10-17
?SO UGLY 684 21 (3.62)  2006-10-17
?mitch hedberg tells a funny joke and the audience k... 1,365 41 (3.27)  2006-10-16
?George's Answering Machine 1,473 44 (3.75)  2006-10-15
?Low Budget Movie 695 27 (3.67)  2006-10-15
?ITS A TTSRAP 932 26 (4.08)  2006-10-15
?Too Much Orange Soda 1,119 45 (3.64)  2006-10-13
?KHAAAAAAAAAAAAAAAAAAAAAAAAA... 3,152 60 (4.12)  2006-10-11
?how jared really did it 1,138 33 (3.21)  2006-10-10
?Workout 1,030 41 (3.80)  2006-10-08
?Home Alone 5 Trailer 3,661 80 (3.48)  2006-10-07
?B.W.A. - Forgot the Polend (but not the 5s) 840 47 (3.70)  2006-10-04
?These Pretzels are Making You VOAT 5 1,616 100 (3.99)  2006-10-01
?My Relaxation Page 1,293 63 (3.59)  2006-09-29
?Jump Rope 1,344 38 (3.76)  2006-09-25
?Khan Goes to the Zoo 723 28 (3.43)  2006-09-19
?polend price is rong (part 5 of 5) 2,049 94 (3.97)  2006-09-15
?jon carrie forgot polend because of football 1,404 90 (3.60)  2006-09-09
?A New Kind of Tool 1,212 24 (3.46)  2006-09-07
?Scarface (short version) 999 26 (3.08)  2006-09-05
?Mr. Sparkle Song 4,417 48 (3.90)  2006-09-03
?(nsfw) Poland Bulls win at the buzzer (vote 5 for fa... 1,927 82 (3.88)  2006-08-29
?We're going to Poland, PLEASE VOT... 2,469 121 (3.25)  2006-08-20
?aliens polandize the world and make you vote 5 1,252 58 (3.60)  2006-08-19
?Federline Remembered Poland 3,699 112 (4.02)  2006-08-18
?Will Smith Gets 'Jiggy' with 'It&... 1,477 47 (3.43)  2006-08-13
?ce ytmnd est français 997 31 (2.06)  2006-08-12
?Daddy Jackson 794 27 (3.48)  2006-08-10
?The Who feat. Arnold - Who Are You? 17,769 440 (4.07)  2006-07-28
?Hippie Phil 5,582 38 (4.24)  2006-07-28
?Saget performs on AFV 1,292 37 (3.73)  2006-07-27
?Arnold is too strong for Price is Right 18,911 410 (4.01)  2006-07-25
?Your legacy? 1,753 37 (3.76)  2006-07-16
?What's the worst that could happen? 1,175 50 (3.42)  2006-07-16
?RollerCoaster Diecoon 13,845 501 (4.16)  2006-07-13
?Heffer Has No Manners (view in ie) 1,372 28 (3.32)  2006-07-12
?Tightening up graphics is a bad job 1,959 40 (3.58)  2006-07-05
?The REAL Reason the Great Wall of China was B... 17,599 499 (4.07)  2006-07-04
?Die Hard: With a Censorship 14,723 458 (4.20)  2006-04-28
?snakes on my burger 63,823 1,960 (4.32)  2006-04-03
?E.L.: Flying Lobsters 1,344 71 (3.35)  2006-03-31
?Wheres the cake? 1,555 61 (3.30)  2006-03-18
?spy on your friends! 25,772 863 (4.22)  2006-01-15
?Conan Grew a Mustache 2,529 58 (3.55)  2006-01-07
?Will Smith Buys Cheese 4,014 74 (3.72)  2005-12-27
?BINGO BANGO BONGO 2,130 48 (3.40)  2005-12-17
?YUO KHAN DO IT 5,769 104 (3.84)  2005-12-06
?"Im black yall" 8,590 82 (3.71)  2005-11-22
?push it 3,012 48 (3.08)  2005-10-05
?no idea 1,131 44 (2.98)  2005-09-24